Location: Unspecified
(0.0000°N, 0.0000°E)
Time: 17:08:19
(UTC+00:00)

Courier 1B Rocket - Pass Details

Date: 21 December 2018
Orbit: 920 x 1202 km, 28.2° (Epoch: 17 June)

Event Time Altitude Azimuth Distance (km) Brightness Sun altitude
Rises 00:03:42 0° 214° (SW) 3,884 - -66.5°
Reaches altitude 10° 00:07:54 10° 192° (SSW) 2,862 - -66.4°
Maximum altitude 00:11:43 15° 158° (SSE) 2,435 - -66.3°
Drops below altitude 10° 00:15:25 10° 124° (SE) 2,747 - -66.2°
Sets 00:19:17 0° 102° (ESE) 3,641 - -66.0°
